Wind_Speed
6 5 5 6 7 7 8 10 12 11 12 10 8 6 6 6 8 10 23 26 26 27 25 22 20 16 13 15 21 24 25 25 23 22 21 19 21 20 23 24 23 23 20 19
6 5 6 6 6 7 8 9 11 14 14 10 7 9 10 9 8 7 13 24 25 26 25 24 22 21 19 19 21 24 27 27 26 25 24 19 20 20 22 24 25 23 20 19
10 10 8 9 9 9 9 10 10 11 13 12 10 9 11 12 10 9 11 14 24 28 28 26 25 25 25 23 23 27 28 29 29 27 25 21 19 24 26 27 26 23 21 19
15 14 13 13 13 14 15 14 14 13 15 14 11 10 12 12 12 11 12 15 16 20 25 29 30 30 29 28 27 29 31 31 31 29 27 23 23 25 27 28 26 24 22 21
20 19 19 19 19 19 19 19 18 17 16 17 17 14 12 16 16 15 14 15 18 18 20 24 26 27 29 29 30 31 33 33 33 32 29 25 25 26 28 27 27 26 24 24
24 25 24 25 25 25 25 24 23 22 21 19 19 19 15 15 17 17 17 17 18 19 19 20 21 23 27 29 33 33 36 37 36 35 32 29 28 28 27 27 29 28 26 26
28 28 31 31 31 31 31 31 30 28 26 24 24 23 20 16 17 18 20 21 21 20 20 20 21 24 26 29 31 34 38 39 39 37 33 30 29 30 28 29 29 30 29 29
32 33 33 34 35 34 34 34 34 33 31 29 29 29 25 22 20 20 22 22 23 24 23 23 22 23 27 30 32 33 38 40 40 39 38 33 30 31 30 30 32 32 32 31
31 31 32 32 33 35 33 34 34 35 34 32 34 32 31 28 26 26 25 24 25 26 26 26 25 26 26 28 32 34 37 40 40 40 41 40 36 35 34 33 33 34 34 34
31 32 31 32 33 34 35 34 33 34 35 35 37 37 37 33 32 31 29 28 27 28 28 27 28 28 28 29 31 34 37 40 42 42 43 43 42 39 37 36 36 36 36 37
34 36 33 33 34 34 34 36 35 35 35 35 37 39 38 36 36 35 33 30 30 29 29 29 29 28 30 30 33 35 38 41 43 44 45 46 46 45 43 42 41 40 40 40
36 39 37 36 38 37 36 35 37 39 37 36 37 41 40 40 39 38 38 37 35 34 34 32 31 31 31 32 34 36 38 42 44 47 48 48 49 50 49 48 47 45 44 44
40 42 40 39 38 39 40 39 38 39 40 40 39 42 41 42 43 44 44 42 39 38 36 36 35 33 32 33 35 38 39 41 43 46 49 51 52 53 53 53 52 51 50 49
41 42 41 40 39 40 40 41 42 42 42 43 42 44 44 45 46 45 46 46 45 43 42 42 40 39 39 39 40 40 40 42 43 45 46 48 51 53 54 56 56 55 55 54
45 46 46 46 45 45 43 43 44 45 45 47 45 46 46 46 47 48 48 47 47 47 46 45 45 45 45 43 43 44 45 45 45 45 46 48 49 50 51 52 54 56 58 58
47 48 47 46 47 47 47 46 47 47 48 50 50 49 50 50 51 51 51 50 50 49 49 48 48 49 50 50 50 49 49 49 49 50 49 48 49 51 52 53 54 54 55 58
48 49 51 50 47 45 47 47 47 48 48 49 52 53 53 53 53 53 54 55 56 55 55 55 55 55 54 54 55 54 54 54 55 55 55 55 54 53 54 54 54 55 55 56
47 48 49 49 48 48 48 46 46 47 48 49 50 51 53 55 57 57 58 58 59 60 60 60 61 60 60 60 60 61 61 60 61 61 61 61 60 59 59 58 58 58 57 57
46 46 47 47 48 49 49 48 46 45 47 47 48 48 49 51 54 56 58 60 61 62 64 65 65 66 67 67 66 65 66 67 67 67 67 67 68 66 65 64 64 63 63 62
49 48 47 48 50 52 50 50 50 50 50 48 51 52 52 53 55 56 58 59 60 61 62 64 65 66 67 68 71 71 71 71 71 71 71 71 72 73 73 72 71 70 70 69
52 51 50 51 52 51 49 50 53 53 53 53 53 54 56 58 59 59 60 61 63 64 64 65 67 67 67 68 68 69 71 73 73 72 72 74 75 76 76 77 77 77 76 75
53 53 53 53 54 54 53 52 52 53 55 56 57 59 60 60 61 62 64 65 66 67 67 68 67 67 68 69 69 69 69 69 69 70 71 72 73 73 75 77 79 79 80 81
56 56 55 56 54 54 55 57 56 56 56 57 59 60 61 62 63 64 65 67 69 70 71 71 71 70 70 71 72 73 74 74 74 74 74 73 73 75 76 77 77 77 78 80
58 57 59 58 55 55 56 55 59 60 59 59 58 59 59 60 61 62 64 66 68 69 70 71 72 73 73 73 74 76 77 76 77 77 78 79 78 78 78 79 81 81 81 81
54 57 55 59 59 56 54 51 50 48 48 50 51 50 49 49 50 51 53 55 58 60 64 67 70 71 72 73 75 77 79 80 81 82 83 84 84 83 82 82 82 83 84 85
46 42 49 53 42 46 42 40 38 34 33 35 34 33 30 30 33 34 36 39 41 45 49 52 54 57 59 61 61 60 61 63 66 70 74 79 83 86 87 87 85 86 87 88
Wind_Direction
293 298 303 311 321 320 306 306 300 292 292 303 310 311 299 270 240 221 213 209 205 213 220 220 227 234 241 242 226 218 214 214 216 219 219 225 238 237 226 212 208 204 196 195
276 280 289 292 308 319 325 315 291 289 287 293 293 299 296 280 262 242 223 224 218 216 221 228 236 239 241 248 237 225 218 214 216 217 218 224 238 243 243 233 217 207 202 203
266 271 278 288 295 297 299 301 304 305 300 298 290 283 278 280 265 255 251 236 226 224 224 231 235 239 241 247 243 226 222 217 218 219 219 226 237 241 239 227 215 212 212 214
269 272 272 277 281 290 293 295 297 299 304 308 297 284 268 268 268 261 254 251 239 229 227 230 233 235 236 239 239 228 223 220 220 220 218 224 239 242 243 242 238 229 223 221
270 271 273 276 280 285 286 289 290 291 289 294 299 290 272 261 261 263 259 250 247 240 228 227 230 232 232 230 227 224 223 223 222 221 217 219 233 242 246 247 239 234 232 229
272 275 275 277 280 282 285 286 285 285 286 282 282 284 277 264 259 253 255 253 246 244 239 236 235 232 229 225 226 223 220 224 225 224 220 219 232 240 245 249 244 236 235 238
271 271 273 278 279 281 284 284 284 281 281 278 274 272 274 267 258 254 250 248 248 244 242 239 234 233 230 228 230 227 221 224 227 229 224 224 233 241 244 249 250 246 241 239
277 277 277 276 277 278 279 279 280 280 281 277 271 267 269 265 262 259 252 248 244 243 242 240 237 234 232 229 232 231 224 225 228 231 234 231 236 246 249 251 251 253 253 249
279 279 279 279 278 276 275 274 275 276 275 272 270 267 265 265 264 261 259 256 249 245 241 239 237 235 232 232 233 231 225 226 227 230 234 237 233 235 239 245 251 255 256 256
280 279 280 279 277 276 275 274 274 273 271 268 268 268 266 264 264 264 262 260 258 254 248 242 238 237 235 233 231 231 229 228 230 231 234 238 239 238 241 245 247 249 252 255
279 277 278 278 279 277 275 275 273 271 271 271 269 266 266 264 263 262 262 262 265 261 256 251 247 241 239 239 236 234 233 234 234 234 236 238 242 241 241 243 248 251 252 251
281 280 279 278 277 277 277 273 271 272 271 270 270 268 268 267 264 261 260 260 259 260 261 256 253 252 248 244 241 240 239 238 237 237 239 240 242 245 244 243 244 248 251 254
286 284 283 279 277 276 275 273 271 270 268 266 263 264 265 264 265 264 263 260 258 257 259 260 261 258 254 255 253 247 243 243 244 243 241 241 242 244 247 247 246 246 248 250
283 283 283 282 280 277 275 273 270 268 267 267 266 265 262 261 262 262 263 263 264 263 261 261 260 257 256 257 258 258 255 251 247 246 247 247 246 246 246 248 249 249 248 248
281 280 281 282 280 276 275 274 272 269 267 265 264 265 267 266 264 264 265 264 264 263 263 262 262 262 261 259 257 257 258 259 257 256 252 250 250 251 251 251 251 250 249 249
278 281 281 279 279 278 275 272 270 270 269 268 267 265 265 265 265 266 267 267 266 265 264 263 261 261 261 261 262 261 261 261 261 261 260 259 257 255 253 253 253 254 254 253
281 280 281 281 280 276 274 275 273 271 268 266 266 267 267 266 266 266 266 266 267 267 267 266 264 262 261 261 261 262 263 263 263 262 262 261 260 259 259 258 256 256 255 256
284 283 283 283 283 279 278 276 273 272 271 270 269 267 267 267 266 265 265 264 265 265 265 266 266 267 266 265 263 262 262 263 263 264 263 262 262 262 261 261 260 259 258 258
287 285 283 282 280 280 280 280 278 274 271 269 269 268 267 266 266 266 266 266 265 264 265 265 264 264 265 266 265 264 264 264 263 263 264 265 265 264 263 263 263 262 262 261
288 286 283 282 280 280 280 279 277 275 272 269 269 269 267 266 264 264 265 266 266 266 266 265 265 265 265 265 266 266 265 265 265 265 265 266 266 267 267 266 265 264 264 263
287 286 285 283 281 280 278 276 275 275 275 275 272 269 267 266 266 266 266 265 266 266 266 267 268 269 268 267 266 266 266 267 267 266 265 266 266 266 266 267 267 267 266 264
287 286 285 284 282 280 280 278 274 273 272 272 271 270 268 267 266 266 266 266 266 266 266 268 268 269 270 272 273 272 271 270 268 268 267 267 266 265 265 264 265 265 266 266
288 285 285 283 281 281 279 276 274 272 271 269 267 266 267 268 269 269 269 268 268 269 269 270 270 270 270 272 273 274 273 273 273 272 271 269 269 269 269 268 266 265 264 264
286 284 282 280 279 275 272 271 271 271 270 269 269 269 268 268 268 268 269 270 270 271 271 271 272 272 273 274 274 275 275 274 274 274 273 272 271 269 268 268 269 268 267 266
287 284 281 280 278 275 274 271 270 270 271 271 272 275 277 277 278 277 277 277 278 278 279 279 279 279 278 278 278 277 276 275 275 275 274 273 272 271 270 269 267 266 267 267
293 288 280 278 277 279 278 278 282 280 278 279 280 283 285 286 286 287 287 287 288 289 290 290 290 289 288 287 286 285 283 282 281 279 277 276 274 272 271 270 268 267 266 264
Height
5833 5832 5831 5829 5828 5827 5825 5823 5821 5821 5819 5818 5817 5815 5814 5812 5812 5811 5812 5813 5816 5818 5820 5824 5826 5828 5829 5829 5830 5832 5834 5836 5838 5839 5840 5841 5842 5844 5845 5847 5848 5849 5850 5853
5833 5831 5830 5828 5827 5825 5823 5822 5821 5819 5817 5817 5816 5814 5812 5812 5811 5811 5811 5813 5814 5817 5819 5821 5823 5824 5825 5825 5826 5828 5830 5832 5834 5836 5837 5838 5840 5842 5843 5844 5844 5845 5847 5849
5830 5829 5828 5827 5825 5824 5823 5821 5819 5817 5815 5814 5813 5812 5811 5810 5809 5809 5808 5809 5810 5812 5815 5816 5818 5819 5820 5821 5821 5823 5825 5828 5830 5832 5833 5835 5837 5838 5839 5839 5840 5842 5844 5846
5828 5827 5825 5824 5823 5822 5820 5819 5817 5815 5813 5811 5811 5810 5808 5807 5806 5806 5806 5805 5806 5807 5808 5809 5810 5812 5813 5814 5816 5818 5820 5823 5826 5828 5829 5831 5834 5835 5835 5836 5837 5838 5839 5841
5825 5823 5822 5821 5820 5819 5818 5816 5814 5812 5811 5809 5807 5806 5805 5803 5802 5802 5802 5802 5802 5802 5802 5803 5804 5806 5807 5808 5810 5811 5815 5818 5820 5822 5824 5826 5828 5830 5831 5832 5833 5834 5835 5836
5820 5819 5818 5817 5815 5814 5813 5811 5810 5808 5807 5807 5804 5803 5801 5800 5799 5798 5798 5798 5798 5798 5797 5798 5798 5800 5801 5802 5804 5806 5808 5811 5813 5816 5818 5820 5823 5824 5826 5828 5829 5829 5831 5831
5813 5812 5811 5811 5810 5809 5808 5806 5804 5804 5802 5801 5799 5798 5797 5796 5794 5794 5793 5792 5793 5793 5793 5793 5793 5794 5795 5797 5799 5801 5803 5804 5807 5811 5813 5815 5817 5818 5820 5821 5823 5824 5825 5826
5805 5806 5805 5804 5803 5801 5800 5800 5798 5796 5795 5794 5792 5791 5792 5791 5790 5789 5787 5786 5786 5786 5787 5788 5788 5788 5789 5790 5791 5793 5796 5799 5801 5804 5807 5809 5812 5814 5815 5816 5817 5818 5820 5821
5797 5797 5796 5795 5794 5793 5792 5791 5790 5788 5787 5786 5784 5785 5784 5785 5784 5782 5781 5781 5780 5779 5779 5780 5781 5782 5783 5784 5785 5786 5788 5791 5794 5796 5799 5800 5802 5804 5806 5808 5810 5813 5813 5814
5790 5789 5788 5786 5785 5785 5784 5783 5782 5781 5779 5778 5776 5776 5775 5778 5777 5775 5775 5774 5774 5773 5773 5773 5773 5774 5775 5777 5778 5779 5780 5782 5785 5788 5790 5792 5794 5796 5798 5800 5801 5803 5804 5806
5781 5781 5782 5779 5777 5776 5775 5774 5773 5772 5771 5769 5767 5767 5768 5768 5769 5769 5769 5769 5769 5768 5767 5767 5767 5767 5767 5768 5770 5772 5773 5774 5776 5778 5780 5782 5785 5786 5788 5790 5792 5794 5795 5796
5772 5770 5772 5771 5768 5767 5766 5765 5764 5762 5762 5760 5758 5757 5758 5758 5759 5760 5760 5761 5761 5760 5760 5760 5759 5759 5759 5760 5761 5762 5763 5765 5767 5768 5770 5772 5774 5776 5777 5779 5781 5783 5785 5787
5762 5760 5760 5760 5760 5758 5755 5755 5754 5753 5751 5749 5748 5747 5748 5747 5747 5747 5748 5750 5750 5751 5751 5751 5752 5751 5751 5751 5751 5752 5753 5754 5755 5757 5759 5760 5762 5764 5765 5767 5769 5771 5773 5775
5752 5751 5749 5749 5748 5746 5745 5744 5742 5741 5740 5739 5738 5736 5736 5736 5735 5736 5737 5737 5738 5740 5740 5740 5741 5742 5742 5741 5741 5741 5742 5742 5743 5745 5746 5747 5749 5750 5752 5753 5755 5757 5759 5761
5743 5741 5739 5736 5735 5733 5733 5732 5730 5729 5728 5726 5726 5724 5725 5726 5725 5724 5724 5726 5726 5727 5727 5728 5729 5729 5729 5729 5729 5729 5729 5730 5731 5732 5733 5734 5735 5736 5737 5739 5741 5742 5744 5746
5732 5728 5727 5726 5721 5720 5720 5719 5717 5717 5715 5712 5713 5714 5713 5712 5712 5712 5712 5711 5712 5713 5713 5714 5715 5715 5715 5715 5715 5716 5716 5717 5718 5719 5720 5720 5721 5722 5723 5725 5726 5728 5729 5730
5720 5716 5713 5713 5711 5707 5706 5707 5706 5704 5702 5701 5700 5699 5700 5700 5698 5698 5698 5696 5696 5696 5696 5697 5697 5699 5699 5699 5700 5701 5701 5701 5702 5702 5703 5705 5707 5709 5709 5710 5711 5712 5714 5715
5706 5702 5700 5699 5696 5694 5694 5694 5692 5690 5688 5686 5687 5686 5685 5683 5682 5682 5681 5682 5680 5679 5679 5679 5679 5679 5680 5682 5683 5684 5685 5685 5685 5685 5686 5688 5690 5691 5693 5694 5695 5696 5698 5699
5692 5689 5687 5685 5683 5680 5680 5679 5677 5676 5675 5673 5672 5671 5670 5668 5666 5665 5664 5663 5663 5662 5661 5661 5661 5661 5661 5661 5663 5665 5666 5667 5668 5668 5669 5669 5670 5672 5674 5676 5677 5678 5680 5682
5679 5677 5676 5672 5669 5666 5668 5665 5661 5660 5659 5660 5657 5656 5655 5653 5652 5649 5647 5646 5645 5643 5642 5641 5642 5643 5643 5644 5643 5645 5647 5648 5650 5651 5652 5652 5652 5653 5654 5655 5657 5659 5660 5662
5665 5662 5660 5656 5653 5653 5653 5650 5644 5645 5646 5641 5641 5640 5638 5636 5635 5634 5632 5629 5628 5626 5626 5625 5623 5622 5624 5625 5626 5627 5627 5627 5629 5631 5633 5633 5633 5633 5633 5633 5635 5636 5638 5640
5651 5648 5645 5641 5638 5637 5635 5633 5631 5629 5626 5624 5622 5620 5619 5618 5618 5616 5614 5612 5610 5609 5608 5607 5607 5608 5606 5604 5605 5606 5608 5609 5610 5611 5611 5611 5611 5611 5611 5612 5613 5614 5614 5616
5636 5631 5631 5628 5624 5619 5615 5611 5610 5609 5607 5605 5603 5602 5601 5600 5598 5596 5594 5593 5591 5589 5588 5587 5588 5589 5589 5587 5586 5586 5585 5586 5587 5588 5589 5589 5590 5589 5588 5589 5590 5591 5592 5592
5615 5611 5610 5608 5607 5601 5596 5592 5590 5588 5587 5585 5585 5584 5583 5582 5579 5578 5575 5574 5571 5569 5568 5567 5567 5567 5567 5567 5565 5564 5563 5564 5565 5565 5564 5564 5565 5566 5567 5567 5566 5566 5567 5567
5594 5592 5590 5589 5585 5581 5579 5573 5574 5574 5572 5570 5568 5567 5566 5565 5562 5560 5558 5556 5554 5552 5549 5547 5546 5546 5547 5545 5543 5541 5541 5541 5541 5539 5539 5538 5538 5539 5542 5542 5543 5543 5542 5540
5576 5573 5568 5568 5567 5567 5567 5561 5560 5559 5558 5558 5558 5556 5554 5552 5550 5548 5544 5541 5538 5535 5533 5530 5528 5525 5524 5522 5519 5517 5517 5516 5515 5514 5513 5512 5512 5512 5512 5514 5516 5514 5515 5516